Hourly Weather Goianira

Today, 18 May, Tuesday

Time Temperature Precipitation Wind Pressure Humidity
00:00 +22°C° 0 mm 1 mps 696 mmHg 51%
01:00 +20°C° 0 mm 1 mps 695 mmHg 57%
02:00 +20°C° 0 mm 1 mps 695 mmHg 57%
03:00 +19°C° 0 mm 1 mps 695 mmHg 56%
04:00 +19°C° 0 mm 1 mps 695 mmHg 58%
05:00 +19°C° 0 mm 1 mps 695 mmHg 59%
06:00 +19°C° 0 mm 1 mps 695 mmHg 61%
07:00 +21°C° 0 mm 1 mps 696 mmHg 55%
08:00 +23°C° 0 mm 1 mps 696 mmHg 50%
09:00 +25°C° 0 mm 1 mps 697 mmHg 45%
10:00 +27°C° 0 mm 2 mps 697 mmHg 40%
11:00 +28°C° 0 mm 2 mps 697 mmHg 35%
12:00 +30°C° 0 mm 2 mps 697 mmHg 31%
13:00 +31°C° 0 mm 2 mps 696 mmHg 30%
14:00 +31°C° 0 mm 1 mps 696 mmHg 29%
15:00 +31°C° 0 mm 1 mps 695 mmHg 28%
16:00 +29°C° 0 mm 1 mps 695 mmHg 33%
17:00 +27°C° 0 mm 1 mps 695 mmHg 38%
18:00 +25°C° 0 mm 1 mps 695 mmHg 43%
19:00 +24°C° 0 mm 1 mps 695 mmHg 45%
20:00 +21°C° 0 mm 0 mps 695 mmHg 47%
21:00 +20°C° 0 mm 0 mps 695 mmHg 49%
22:00 +19°C° 0 mm 0 mps 695 mmHg 51%
23:00 +18°C° 0 mm 0 mps 695 mmHg 54%

Tomorrow, 19 May, Wednesday

Time Temperature Precipitation Wind Pressure Humidity
00:00 +17°C° 0 mm 0 mps 695 mmHg 56%
01:00 +19°C° 0 mm 1 mps 695 mmHg 57%
02:00 +19°C° 0 mm 1 mps 694 mmHg 58%
03:00 +18°C° 0 mm 1 mps 694 mmHg 59%
04:00 +18°C° 0 mm 1 mps 694 mmHg 59%
05:00 +18°C° 0 mm 1 mps 694 mmHg 60%
06:00 +18°C° 0 mm 1 mps 694 mmHg 60%
07:00 +20°C° 0 mm 1 mps 695 mmHg 54%
08:00 +23°C° 0 mm 1 mps 696 mmHg 48%
09:00 +26°C° 0 mm 1 mps 697 mmHg 42%
10:00 +28°C° 0 mm 1 mps 697 mmHg 37%
11:00 +30°C° 0 mm 1 mps 697 mmHg 31%
12:00 +32°C° 0 mm 1 mps 697 mmHg 26%
13:00 +32°C° 0 mm 1 mps 696 mmHg 26%
14:00 +30°C° 0 mm 0 mps 695 mmHg 25%
15:00 +30°C° 0 mm 0 mps 695 mmHg 25%
16:00 +30°C° 0 mm 1 mps 694 mmHg 31%
17:00 +27°C° 0 mm 1 mps 694 mmHg 37%
18:00 +24°C° 0 mm 1 mps 694 mmHg 43%
19:00 +23°C° 0 mm 1 mps 694 mmHg 46%
20:00 +22°C° 0 mm 1 mps 694 mmHg 48%
21:00 +21°C° 0 mm 1 mps 694 mmHg 50%
22:00 +21°C° 0 mm 1 mps 694 mmHg 51%
23:00 +20°C° 0 mm 1 mps 694 mmHg 52%

Day after tomorrow, 20 May, Thursday

Time Temperature Precipitation Wind Pressure Humidity
00:00 +20°C° 0 mm 1 mps 694 mmHg 53%
01:00 +20°C° 0 mm 1 mps 694 mmHg 54%
02:00 +19°C° 0 mm 1 mps 694 mmHg 55%
03:00 +19°C° 0 mm 1 mps 694 mmHg 55%
04:00 +19°C° 0 mm 1 mps 694 mmHg 56%
05:00 +18°C° 0 mm 1 mps 694 mmHg 57%
06:00 +18°C° 0 mm 1 mps 694 mmHg 57%
07:00 +21°C° 0 mm 1 mps 695 mmHg 52%
08:00 +23°C° 0 mm 1 mps 696 mmHg 46%
09:00 +26°C° 0 mm 1 mps 697 mmHg 41%
10:00 +28°C° 0 mm 1 mps 697 mmHg 36%
11:00 +30°C° 0 mm 1 mps 697 mmHg 32%
12:00 +33°C° 0 mm 1 mps 697 mmHg 27%
13:00 +33°C° 0 mm 1 mps 696 mmHg 26%
14:00 +33°C° 0 mm 1 mps 695 mmHg 26%
15:00 +33°C° 0 mm 1 mps 695 mmHg 25%
16:00 +30°C° 0 mm 1 mps 694 mmHg 32%
17:00 +28°C° 0 mm 1 mps 694 mmHg 38%
18:00 +25°C° 0 mm 1 mps 694 mmHg 45%
19:00 +24°C° 0 mm 1 mps 694 mmHg 47%
20:00 +23°C° 0 mm 1 mps 694 mmHg 50%
21:00 +20°C° 0 mm 0 mps 694 mmHg 52%
22:00 +20°C° 0 mm 0 mps 694 mmHg 53%
23:00 +21°C° 0 mm 1 mps 694 mmHg 55%

21 May, Friday

Time Temperature Precipitation Wind Pressure Humidity
00:00 +21°C° 0 mm 1 mps 694 mmHg 56%
01:00 +20°C° 0 mm 1 mps 694 mmHg 57%
02:00 +20°C° 0 mm 1 mps 694 mmHg 57%
03:00 +20°C° 0 mm 1 mps 693 mmHg 58%
04:00 +20°C° 0 mm 1 mps 694 mmHg 58%
05:00 +19°C° 0 mm 1 mps 694 mmHg 59%
06:00 +19°C° 0 mm 1 mps 694 mmHg 59%
07:00 +22°C° 0 mm 1 mps 695 mmHg 53%
08:00 +24°C° 0 mm 1 mps 695 mmHg 47%
09:00 +27°C° 0 mm 1 mps 696 mmHg 42%
10:00 +29°C° 0 mm 1 mps 696 mmHg 37%
11:00 +31°C° 0 mm 1 mps 696 mmHg 32%
12:00 +34°C° 0 mm 1 mps 696 mmHg 27%
13:00 +34°C° 0 mm 1 mps 695 mmHg 27%
14:00 +34°C° 0 mm 1 mps 695 mmHg 26%
15:00 +34°C° 0 mm 1 mps 694 mmHg 25%
16:00 +31°C° 0 mm 1 mps 694 mmHg 31%
17:00 +29°C° 0 mm 1 mps 693 mmHg 38%
18:00 +26°C° 0 mm 1 mps 693 mmHg 44%
19:00 +25°C° 0 mm 1 mps 693 mmHg 45%
20:00 +25°C° 0 mm 1 mps 694 mmHg 47%
21:00 +24°C° 0 mm 1 mps 694 mmHg 48%
22:00 +23°C° 0 mm 1 mps 694 mmHg 49%
23:00 +23°C° 0 mm 1 mps 694 mmHg 50%

22 May, Saturday

Time Temperature Precipitation Wind Pressure Humidity
00:00 +22°C° 0 mm 1 mps 694 mmHg 52%
01:00 +22°C° 0 mm 1 mps 694 mmHg 52%
02:00 +22°C° 0 mm 1 mps 694 mmHg 53%
03:00 +21°C° 0 mm 1 mps 693 mmHg 54%
04:00 +21°C° 0 mm 1 mps 694 mmHg 55%
05:00 +21°C° 0 mm 1 mps 694 mmHg 55%
06:00 +21°C° 0 mm 1 mps 694 mmHg 56%
07:00 +23°C° 0 mm 1 mps 695 mmHg 51%
08:00 +25°C° 0 mm 1 mps 695 mmHg 47%
09:00 +28°C° 0 mm 1 mps 696 mmHg 42%
10:00 +30°C° 0 mm 2 mps 696 mmHg 38%
11:00 +32°C° 0 mm 2 mps 696 mmHg 33%
12:00 +34°C° 0 mm 2 mps 696 mmHg 29%
13:00 +35°C° 0 mm 2 mps 695 mmHg 28%
14:00 +35°C° 0 mm 2 mps 695 mmHg 27%
15:00 +35°C° 0 mm 2 mps 694 mmHg 26%
16:00 +32°C° 0 mm 2 mps 694 mmHg 30%
17:00 +30°C° 0 mm 1 mps 693 mmHg 35%
18:00 +28°C° 0 mm 1 mps 693 mmHg 40%
19:00 +27°C° 0 mm 1 mps 693 mmHg 43%
20:00 +26°C° 0 mm 1 mps 694 mmHg 45%
21:00 +25°C° 0 mm 1 mps 694 mmHg 47%
22:00 +24°C° 0 mm 1 mps 694 mmHg 48%
23:00 +22°C° 0 mm 0 mps 694 mmHg 48%

23 May, Sunday

Time Temperature Precipitation Wind Pressure Humidity
00:00 +22°C° 0 mm 0 mps 694 mmHg 49%
01:00 +21°C° 0 mm 0 mps 694 mmHg 49%
02:00 +21°C° 0 mm 0 mps 694 mmHg 50%
03:00 +21°C° 0 mm 0 mps 693 mmHg 51%
04:00 +20°C° 0 mm 0 mps 694 mmHg 52%
05:00 +20°C° 0 mm 0 mps 694 mmHg 53%
06:00 +22°C° 0 mm 1 mps 694 mmHg 54%
07:00 +23°C° 0 mm 1 mps 695 mmHg 50%
08:00 +25°C° 0 mm 1 mps 696 mmHg 47%
09:00 +27°C° 0 mm 1 mps 696 mmHg 44%
10:00 +29°C° 0 mm 1 mps 696 mmHg 39%
11:00 +31°C° 0 mm 1 mps 696 mmHg 35%
12:00 +33°C° 0 mm 1 mps 696 mmHg 31%
13:00 +33°C° 0 mm 1 mps 696 mmHg 30%
14:00 +33°C° 0 mm 1 mps 695 mmHg 29%
15:00 +34°C° 0 mm 1 mps 695 mmHg 29%
16:00 +32°C° 0 mm 1 mps 694 mmHg 34%
17:00 +30°C° 0 mm 1 mps 694 mmHg 39%
18:00 +26°C° 0 mm 0 mps 694 mmHg 44%
19:00 +25°C° 0 mm 0 mps 694 mmHg 47%
20:00 +23°C° 0 mm 0 mps 694 mmHg 49%
21:00 +22°C° 0 mm 0 mps 695 mmHg 52%
22:00 +22°C° 0 mm 0 mps 695 mmHg 53%
23:00 +22°C° 0 mm 0 mps 695 mmHg 54%
Show more